{"data":{"norad_id":68157,"intl_designator":"2026-049R","name":"STARLINK-37064","alt_names":[],"object_type":"PAYLOAD","status":"ACTIVE","operator":null,"country":"US","launch_date":"2026-03-13","launch_site_code":"AFWTR","launch_vehicle":null,"mission":null,"orbit_class":"UNKNOWN","rcs_meters":null,"size_class":null,"mass_kg":null,"dimensions":null,"purposes":["comms"],"wikipedia_slug":null,"has_3d_model":false,"image_url":null,"decayed_at":null,"tle_current":{"epoch":"2026-09-19T23:25:32.506752Z","epoch_age_seconds":101073,"freshness":"FRESH","line1":"1 68157U 26049R   26262.97607068  .00017359  00000+0  53861-3 0  9999","line2":"2 68157  97.2847 282.9844 0001836  93.1367 267.0085 15.33455064 29421","mean_motion":15.33455064,"eccentricity":0.0001836,"inclination_deg":97.2847,"raan_deg":282.9844,"arg_perigee_deg":93.1367,"mean_anomaly_deg":267.0085,"bstar":0.00053861,"rev_number":2942,"period_min":93.90558835443,"perigee_km":464.25673707606,"apogee_km":466.76972544098,"semimajor_km":6843.6502312585,"source":"CELESTRAK","updated_at":"2026-09-20T09:00:43.795225Z"}}}